RH
90 97 100 100 99 97 96 96 96 96 97 98 99 99 99 99 100 100 100 100 100 100 99 99 99 99 100 100 100 101 101 101 101 100 100 99 99 99 98 98 97 96 97 97 96 96 94 94 93 92 93 91 90 90 88 88 87 85 84 83 80 79 73 67 67 66 61 58 53 47 43 38 41 42 30 21 20 18 17 17 15 15 15 13 14
93 98 100 100 99 98 97 97 96 96 97 98 99 99 99 99 99 99 100 100 100 100 99 99 99 99 100 100 100 101 101 100 100 100 100 99 98 99 99 99 98 97 97 97 96 96 95 93 91 90 89 87 84 84 82 80 80 79 77 78 76 72 70 64 59 61 59 49 43 42 41 37 41 41 28 21 21 18 18 19 16 16 17 16 17
93 99 100 100 99 99 98 98 97 96 97 98 99 99 99 99 99 99 100 100 100 100 100 99 100 100 100 101 101 101 101 101 101 100 100 99 98 99 99 99 98 97 96 96 95 94 92 89 87 86 83 82 77 75 73 70 68 68 65 66 67 62 60 57 52 54 57 50 40 39 43 42 41 39 29 23 22 20 20 20 18 19 19 18 19
94 100 100 99 99 99 99 99 98 98 98 98 98 99 100 100 100 99 100 100 101 101 101 100 101 101 101 101 101 101 101 101 100 100 99 98 98 97 98 97 96 95 93 92 91 89 87 83 82 80 77 74 69 65 63 59 56 54 51 51 52 49 46 43 40 40 46 50 46 39 39 40 40 36 28 23 22 22 23 23 20 19 20 20 19
95 100 100 100 99 98 99 99 99 99 99 98 98 98 99 100 100 100 100 101 101 101 101 100 100 101 101 101 100 100 100 100 99 99 98 98 97 95 95 94 92 91 89 88 87 84 81 78 75 74 71 66 60 56 52 49 45 41 39 37 36 36 33 29 29 28 30 41 48 42 35 35 35 32 28 24 23 24 24 24 23 20 18 18 20
94 98 99 100 99 98 99 98 98 99 99 99 99 99 99 100 100 100 100 100 101 101 101 101 101 101 101 100 100 99 99 99 98 97 96 95 94 93 92 91 89 88 86 84 82 78 74 72 68 65 62 57 52 48 45 42 39 35 33 31 28 27 25 23 24 24 25 34 41 39 35 33 31 31 32 31 30 33 30 20 17 19 19 18 19
92 95 97 99 99 99 99 98 99 99 99 100 100 100 100 100 100 100 100 100 101 101 100 101 101 101 101 100 99 98 97 97 96 95 94 94 92 91 90 88 86 83 81 78 75 71 67 64 61 57 53 49 45 43 41 38 35 33 31 29 27 24 22 23 24 24 28 33 34 34 34 33 33 34 39 40 38 45 49 38 25 18 16 18 22
90 94 96 98 99 99 99 99 99 99 100 100 100 101 100 100 100 100 100 100 101 101 100 100 101 101 100 99 98 97 95 94 93 92 92 91 90 88 86 84 80 77 75 71 67 64 60 57 54 50 47 45 43 41 39 36 33 31 31 29 27 23 22 23 24 26 30 32 32 34 34 37 41 41 47 55 58 63 74 77 66 47 28 19 25
90 94 96 97 99 100 100 100 99 100 100 100 100 101 100 100 100 100 100 101 101 101 100 100 100 99 98 97 95 94 93 92 91 90 89 88 86 85 82 79 76 71 68 65 61 58 55 52 50 47 44 42 40 37 36 33 30 29 29 28 25 22 23 23 25 27 28 30 33 36 40 48 58 64 70 82 91 92 92 95 91 77 56 28 17
90 94 96 97 98 100 100 100 100 100 101 100 100 100 100 100 100 100 101 100 101 102 100 100 99 97 96 94 91 91 91 89 88 87 86 85 82 81 78 74 70 66 62 58 55 53 51 48 46 44 41 39 37 34 33 32 29 27 28 28 25 24 24 25 28 29 30 34 41 47 54 62 72 87 94 95 100 101 99 100 97 90 81 55 26
91 95 97 98 99 100 100 100 100 101 100 101 101 100 100 100 100 100 101 101 101 101 99 98 98 95 94 92 90 90 87 86 87 87 84 82 79 75 72 68 63 60 56 53 51 50 48 45 42 40 38 36 34 33 31 31 30 29 29 29 29 29 28 28 31 33 34 42 54 67 77 76 79 95 102 99 100 101 99 100 100 97 96 90 72
91 96 98 98 99 100 100 100 100 100 101 100 100 100 100 100 100 101 102 102 101 99 98 97 96 94 93 90 88 86 84 88 93 87 80 78 76 70 66 63 59 57 55 53 51 48 45 42 40 39 37 35 34 33 31 31 30 31 31 30 30 30 31 31 34 37 41 49 63 83 94 89 88 98 101 99 100 100 100 100 100 101 98 100 102
93 97 98 98 100 100 100 100 100 100 100 100 100 100 100 100 101 101 102 101 100 98 98 96 93 91 89 85 85 87 89 96 100 91 79 76 74 69 66 63 60 58 55 51 47 44 41 38 37 36 36 34 32 31 30 30 32 34 35 35 34 34 35 36 38 45 52 58 66 83 97 98 99 101 100 101 101 100 101 100 98 103 101 97 95
94 97 97 98 99 100 100 100 100 100 100 100 100 100 100 100 101 102 101 100 99 97 95 93 90 88 86 87 90 95 98 99 101 97 84 75 74 71 66 62 57 52 47 44 41 39 37 35 34 33 33 33 32 32 31 33 37 39 41 42 41 41 42 42 48 61 73 81 84 89 97 101 100 100 100 100 100 99 100 100 98 99 94 82 71
95 96 97 98 98 99 100 100 100 100 100 100 100 100 100 101 102 102 101 99 98 96 92 89 88 89 91 92 93 98 101 98 101 102 88 71 69 68 60 54 48 44 42 40 37 36 35 33 32 31 30 31 31 31 31 35 43 47 48 51 51 51 49 47 61 84 95 97 98 96 99 102 103 104 104 100 102 102 97 94 89 78 65 55 47
94 95 96 97 97 98 99 100 100 100 100 100 100 100 101 102 102 102 100 98 96 93 89 89 90 91 91 90 91 98 101 98 101 100 80 63 61 58 51 47 43 40 40 38 36 35 33 31 31 29 30 32 31 31 34 42 53 55 54 56 57 58 56 50 62 89 101 101 103 103 102 99 94 88 80 79 91 92 73 59 56 53 52 56 53
92 94 94 94 96 98 99 100 100 100 100 100 100 100 102 103 102 101 99 97 94 91 91 92 91 89 90 93 97 100 99 100 102 90 67 55 55 51 45 43 41 38 38 36 35 34 31 32 32 30 31 30 29 32 39 51 67 70 63 59 55 53 54 49 50 62 70 71 73 72 66 59 53 47 40 43 57 59 46 40 46 53 64 76 77
89 91 91 92 95 97 100 100 100 101 101 100 100 101 102 103 102 100 99 95 93 93 92 91 90 93 97 100 101 99 100 102 95 75 57 52 51 47 43 40 38 36 36 35 34 32 32 32 31 30 32 33 38 53 64 72 85 87 73 59 48 42 44 43 39 38 37 36 36 35 33 32 31 32 33 34 38 41 42 48 55 62 71 83 89
83 85 86 89 94 98 100 100 100 101 100 100 101 102 103 103 101 101 99 95 94 95 93 93 96 100 102 102 100 98 100 101 85 59 47 48 45 41 39 36 33 33 33 32 32 31 31 30 31 32 31 35 56 85 95 92 95 92 76 62 52 45 43 39 32 29 28 26 26 26 29 33 34 35 38 39 40 43 46 50 56 63 73 81 88
81 83 86 90 93 98 101 101 100 101 100 101 102 102 103 102 101 101 99 96 97 98 98 99 101 102 102 100 94 81 78 91 87 59 40 39 38 35 35 32 30 30 30 30 31 31 31 31 32 30 30 40 68 95 101 98 97 89 76 70 66 57 47 40 35 33 30 28 29 32 37 43 45 45 47 48 49 51 52 56 61 65 72 77 79
84 86 89 92 95 98 101 101 101 101 100 101 102 102 103 103 101 101 99 98 100 101 101 103 103 102 101 95 84 69 67 87 91 62 36 35 35 32 33 32 29 29 30 31 32 31 32 32 31 30 34 50 74 93 99 98 94 85 80 87 89 73 53 43 40 37 34 33 37 43 46 48 47 47 48 49 51 54 57 62 68 70 75 79 78
86 88 90 94 97 100 102 101 101 102 101 102 102 101 102 103 102 101 100 101 103 102 103 103 101 102 101 94 87 83 84 93 88 57 36 38 39 35 35 34 32 31 31 32 33 34 34 33 34 32 32 45 72 94 99 93 86 80 83 91 90 71 52 43 38 34 36 42 47 49 49 48 47 47 51 53 55 59 61 63 68 71 74 77 78
87 90 92 96 99 101 102 101 101 102 102 102 102 101 102 103 103 103 102 102 104 103 103 103 100 100 101 98 95 94 96 100 93 68 46 41 42 40 37 34 33 31 31 31 32 35 35 34 35 34 32 51 84 96 86 75 67 63 63 63 57 46 38 36 37 40 47 53 53 50 49 53 54 55 59 62 63 67 70 70 71 73 74 75 75
90 92 94 98 101 102 102 101 101 102 101 101 101 101 101 102 103 104 103 103 104 103 102 102 101 99 100 100 99 99 99 101 99 84 62 45 41 41 37 32 32 31 29 30 31 33 35 34 36 36 34 47 67 66 52 48 47 43 42 39 34 32 35 39 46 53 56 55 53 51 53 59 64 65 68 70 70 71 73 73 72 74 76 77 75
92 94 96 99 102 102 101 101 101 101 100 101 102 101 100 101 102 103 103 104 104 103 102 102 101 100 99 99 100 100 100 99 99 96 79 55 43 42 39 38 43 42 36 33 31 31 35 35 36 39 38 39 43 41 38 40 38 34 33 31 31 38 46 52 57 58 57 57 58 58 59 63 68 71 72 72 71 72 73 72 69 70 73 75 73
94 96 98 101 102 101 100 100 100 101 100 101 101 101 100 101 102 101 102 104 104 103 102 103 103 102 100 99 100 100 101 100 98 99 92 70 49 45 48 53 60 61 52 41 32 30 34 37 37 39 40 40 39 38 37 35 31 29 31 35 44 53 57 59 60 60 62 64 64 63 64 68 70 71 73 72 69 71 76 76 72 69 71 78 77
96 98 101 103 103 101 100 100 100 100 100 101 101 101 100 102 102 100 102 105 105 104 103 103 104 104 102 101 100 99 99 101 98 97 97 82 57 48 59 69 73 74 67 49 34 31 35 38 39 41 40 38 35 32 30 29 30 35 43 50 57 60 61 62 64 65 67 69 68 68 68 70 71 70 71 71 68 70 77 81 80 76 77 85 88
98 100 102 103 101 100 100 101 100 100 100 101 101 100 100 101 102 101 100 101 101 101 101 101 101 101 100 100 101 100 101 101 98 94 93 84 65 57 70 82 83 84 80 59 36 31 36 38 40 41 38 33 29 27 27 31 39 47 53 57 59 61 63 65 66 67 71 73 72 72 71 71 72 71 72 72 69 70 75 80 82 83 85 93 98
101 103 103 102 101 100 100 100 100 100 100 100 100 100 100 101 103 102 101 100 98 96 95 94 93 94 96 95 95 96 96 95 94 92 90 85 77 74 81 89 88 88 88 67 39 29 35 39 40 39 34 29 27 28 33 41 48 52 55 57 59 61 63 66 68 71 75 76 75 74 74 74 73 73 75 75 70 70 74 78 82 87 91 98 103
104 103 102 101 100 100 100 100 100 100 100 100 100 100 100 102 103 103 102 101 100 97 93 90 88 89 91 90 87 85 83 82 86 92 92 91 90 88 90 94 92 92 90 71 42 29 35 39 40 38 34 30 29 33 41 48 50 51 54 58 60 62 63 67 72 74 74 75 75 76 77 77 76 76 78 78 74 72 73 76 82 89 95 101 104
104 102 101 101 101 100 100 100 100 100 100 100 100 100 100 101 101 103 103 101 99 99 97 93 91 89 87 85 83 84 84 82 84 90 93 95 95 95 97 97 94 93 90 69 41 30 35 40 40 40 36 32 32 38 47 52 53 55 57 57 58 63 66 69 72 73 73 73 74 75 76 78 79 79 80 81 79 76 74 76 82 90 96 102 105
104 101 100 100 100 100 100 100 100 100 100 100 100 100 100 100 101 103 104 101 99 99 99 97 96 92 87 83 82 84 86 85 86 89 93 97 98 98 99 98 94 93 85 61 36 31 37 40 41 41 37 34 36 44 51 55 57 60 62 59 58 62 66 69 71 71 71 71 72 72 74 77 79 80 80 81 83 83 82 83 87 93 98 102 104
104 102 101 100 100 101 102 102 101 100 100 100 100 100 101 100 100 102 103 102 101 100 100 100 98 94 89 87 86 85 83 83 85 88 92 97 100 100 99 96 94 89 72 46 31 33 40 42 42 41 36 35 39 47 54 57 59 62 65 64 63 63 64 68 69 67 68 70 70 71 72 75 78 79 79 80 85 89 90 91 92 97 102 104 105
104 103 102 100 100 101 102 102 101 100 100 100 100 101 102 101 100 101 101 102 103 102 102 102 99 91 87 88 88 87 86 85 84 84 87 93 98 99 97 93 88 76 55 37 32 37 40 42 43 40 35 36 42 50 55 57 60 63 64 65 65 64 63 64 65 65 66 68 67 69 72 74 76 79 81 83 88 92 93 94 96 100 105 107 107
102 102 101 101 101 100 101 101 100 100 101 101 100 102 104 103 102 101 99 99 100 100 100 101 97 90 86 87 87 86 86 84 80 77 79 83 87 89 88 83 72 58 44 36 35 38 41 44 43 39 36 40 48 54 57 58 60 63 64 64 64 62 60 61 62 63 64 65 66 68 71 73 75 80 85 88 91 93 95 97 99 102 107 110 108
101 101 102 103 103 101 100 101 100 100 102 101 101 103 104 103 103 102 100 98 97 96 96 97 95 89 85 84 83 82 81 79 75 70 68 70 70 69 67 60 50 41 37 36 37 40 44 45 41 37 38 46 52 57 59 59 60 61 63 64 63 61 59 59 59 60 62 64 65 68 71 73 76 81 87 90 91 93 96 99 102 105 108 109 105
100 101 101 102 103 103 101 100 100 101 102 101 102 103 104 103 103 102 100 99 97 94 93 92 90 87 83 81 80 78 76 74 70 65 64 64 61 55 49 44 38 35 35 37 40 43 45 43 39 37 42 49 54 57 59 59 60 61 62 62 62 61 58 58 58 60 62 63 64 67 71 73 75 81 87 91 91 92 96 102 105 107 108 107 103
100 100 100 101 102 103 103 101 100 102 102 103 102 103 103 103 103 102 100 98 97 95 92 89 87 83 79 77 77 75 74 73 71 69 68 67 61 50 42 38 37 37 38 40 43 45 44 40 37 39 46 53 56 59 59 59 59 60 61 60 59 58 57 56 57 59 62 63 63 66 69 71 74 79 87 92 94 95 100 105 106 104 105 104 102
100 101 100 100 101 103 103 101 101 101 103 103 103 103 104 103 102 102 100 98 97 95 91 89 86 82 77 77 79 78 76 74 71 68 64 60 53 45 39 37 37 38 40 42 44 46 43 38 36 41 51 58 60 60 59 58 58 59 59 58 56 54 54 55 55 57 60 61 62 65 68 71 74 79 85 92 97 100 104 107 105 102 102 103 102
100 101 101 100 102 103 102 102 102 102 102 104 104 104 104 102 101 102 100 98 97 95 91 87 85 81 78 78 78 78 76 71 64 58 54 48 43 40 37 36 37 39 41 43 45 46 42 37 39 49 58 62 60 59 58 57 58 57 57 56 55 53 52 54 56 57 58 60 62 65 68 70 74 80 84 88 96 104 106 106 104 103 103 103 102
100 101 100 101 103 103 102 102 103 102 102 104 104 104 104 102 101 101 100 98 96 94 90 86 82 80 79 77 74 73 73 68 61 53 46 42 39 37 36 36 38 40 42 44 45 43 39 39 47 57 61 59 56 55 55 56 57 56 55 54 54 53 52 53 56 57 59 61 64 66 69 71 76 81 83 87 95 105 107 105 104 105 104 102 101
100 100 100 101 103 104 103 103 103 102 103 104 104 104 104 103 101 101 100 98 96 93 90 86 82 79 78 76 73 72 71 68 62 54 45 39 37 35 36 38 40 41 43 45 43 40 40 46 55 60 57 53 52 52 53 54 55 55 54 54 54 54 52 51 53 56 60 64 66 67 70 72 76 80 85 90 98 104 106 105 105 104 102 101 101
100 100 100 101 102 103 103 103 102 103 104 104 104 104 103 102 102 101 99 97 95 93 90 87 82 77 75 73 71 71 71 68 62 53 44 39 37 35 36 40 41 43 45 44 41 40 44 52 57 57 53 50 49 50 51 52 53 54 54 53 53 54 52 50 51 56 63 66 66 67 70 73 76 81 87 93 100 105 106 105 105 102 100 101 101
100 100 100 101 102 102 103 103 102 103 104 103 103 104 103 101 102 101 98 96 94 92 89 85 80 75 73 72 71 71 70 65 58 50 43 39 37 37 38 41 43 44 45 43 40 42 49 55 57 55 50 47 46 47 48 50 52 53 54 54 53 52 50 50 53 59 65 68 67 67 70 73 77 84 89 94 101 106 106 104 103 101 100 101 101
100 100 100 102 103 103 103 103 103 103 104 103 103 103 102 101 101 99 97 95 93 90 87 84 80 75 73 71 68 65 60 55 49 44 39 37 36 38 40 42 44 45 45 42 41 44 51 57 59 55 49 44 43 44 45 47 49 51 53 54 53 50 48 50 54 59 64 68 69 69 71 74 79 85 90 96 103 107 105 102 101 101 101 101 100
101 101 102 103 104 104 104 104 104 103 103 103 103 102 101 100 99 97 95 93 90 88 86 83 80 76 73 68 62 56 50 46 42 39 37 37 38 40 42 43 44 45 44 41 41 46 53 59 61 57 49 42 40 40 41 42 44 46 47 49 49 46 44 47 50 52 56 61 65 68 72 76 79 83 89 98 104 104 102 101 101 100 101 102 101
101 103 104 104 104 105 104 103 104 103 103 102 102 101 100 99 97 94 93 91 89 87 85 82 79 76 71 64 57 51 46 42 39 38 38 39 40 41 42 42 43 45 44 42 42 47 55 60 61 58 51 43 38 37 37 37 38 39 40 40 41 40 40 42 44 45 47 52 58 64 70 75 77 79 87 98 104 102 100 101 101 101 101 101 100
102 103 105 104 104 105 104 103 103 103 102 102 102 101 99 98 95 92 91 89 87 85 83 81 78 74 69 62 56 50 46 43 40 39 40 40 40 40 41 41 43 44 43 41 43 49 56 61 61 58 51 44 39 36 35 35 35 35 36 36 37 38 39 40 42 42 44 47 53 60 66 71 74 80 88 96 101 101 101 102 102 101 102 101 100
104 104 104 105 104 104 103 103 102 102 102 102 101 100 98 95 93 90 89 87 85 83 81 78 75 72 66 60 54 50 46 44 41 39 38 39 38 39 40 41 42 44 42 40 43 51 57 61 61 58 53 47 42 38 36 34 34 34 34 35 37 38 40 42 43 43 45 49 53 59 64 69 74 81 87 93 97 101 103 103 103 102 101 101 100
105 104 105 105 104 103 102 102 101 101 102 101 99 97 95 93 91 89 87 85 83 81 79 76 72 68 62 56 51 47 44 41 38 37 37 37 37 38 39 41 43 43 42 41 45 52 59 62 62 60 57 52 48 44 41 39 38 38 39 40 42 43 45 47 48 48 49 52 55 59 64 69 75 80 83 88 95 101 103 103 104 103 101 101 101
105 105 105 105 103 102 101 101 101 101 100 99 97 94 92 90 88 86 84 82 80 77 74 71 67 62 57 52 47 44 41 38 37 36 36 37 37 37 39 41 43 43 42 43 46 53 59 62 62 61 59 56 53 51 48 46 45 46 47 49 50 51 53 54 54 53 53 55 57 60 65 71 76 79 81 86 95 102 103 104 105 104 102 101 101
Wind_Speed
10 8 6 6 7 7 8 8 8 8 7 7 7 6 7 7 7 7 7 6 6 6 6 6 6 6 6 6 6 7 8 8 9 9 10 10 11 11 12 12 12 13 13 13 12 12 12 13 13 12 12 11 12 12 11 11 10 9 9 8 8 10 11 13 13 10 8 9 8 5 3 1 2 4 4 5 6 6 7 8 9 9 10 10 10
9 7 6 7 7 7 8 8 8 8 7 7 7 6 7 7 7 7 7 7 6 6 7 7 7 7 7 7 8 8 8 9 9 10 10 11 12 12 12 12 13 14 14 13 13 12 12 13 13 12 11 12 12 12 11 11 9 9 9 8 9 11 11 13 14 12 10 8 7 5 2 1 1 3 5 7 8 8 8 9 10 10 11 12 12
9 7 7 7 7 7 7 8 8 7 7 7 7 7 7 7 7 7 7 7 7 7 7 7 8 8 8 8 8 9 9 9 10 10 11 12 13 13 13 13 14 14 14 14 13 13 12 13 14 13 12 12 13 13 12 11 10 10 10 9 9 10 10 12 13 13 12 9 6 5 4 2 1 4 6 8 10 10 9 9 10 10 12 13 14
8 7 7 7 8 7 7 8 7 7 7 7 7 7 7 7 7 7 7 7 7 7 8 8 9 9 9 9 9 9 10 10 11 11 12 12 13 14 14 14 14 14 14 14 13 13 13 13 13 12 11 12 14 13 12 12 11 11 11 10 10 10 10 10 10 11 14 12 6 4 3 2 3 6 7 8 9 9 9 10 11 11 13 15 15
8 7 7 8 8 8 8 8 8 8 8 8 8 8 8 7 7 7 7 8 8 8 8 9 9 9 10 10 10 10 10 10 11 11 12 12 12 13 13 13 13 13 14 14 13 12 12 13 13 12 11 12 14 14 13 13 12 12 13 12 12 11 11 10 8 10 13 13 9 5 3 3 4 6 9 10 11 11 11 11 11 14 16 16 17
8 7 7 8 9 9 9 9 9 9 9 8 8 8 8 8 8 8 8 8 9 9 9 9 10 10 10 10 10 10 10 10 11 11 11 12 12 12 12 13 13 13 13 13 13 12 13 13 13 11 11 12 13 13 13 13 13 13 13 13 13 12 12 11 11 11 11 11 9 6 4 4 5 7 10 13 13 14 17 15 14 16 18 19 20
9 8 8 9 9 10 10 10 10 10 9 9 9 8 8 8 8 8 8 9 9 9 9 10 10 10 10 10 10 10 10 10 10 11 11 11 11 12 12 13 13 14 14 14 13 13 13 13 13 12 11 12 13 13 12 12 12 13 13 12 11 11 12 12 11 11 10 10 8 6 5 5 7 8 11 14 14 16 21 23 22 22 23 24 24
10 9 9 9 10 11 11 11 11 11 10 10 9 9 9 9 9 9 9 9 9 9 10 10 10 9 10 10 10 10 10 10 10 11 11 11 11 12 13 13 14 15 15 15 15 15 14 14 14 13 12 13 12 12 11 11 11 12 12 10 9 10 11 12 11 10 10 9 9 7 6 7 9 11 13 16 17 18 22 24 26 28 29 28 26
10 10 10 11 12 12 12 11 11 11 11 10 10 10 9 9 9 9 9 10 10 10 10 9 9 9 9 9 9 9 9 9 10 10 10 11 12 12 13 14 15 16 17 17 16 16 16 15 15 14 14 13 12 12 11 10 10 11 11 10 9 10 11 11 10 10 9 9 9 8 8 10 12 14 16 18 18 19 20 22 24 27 31 32 28
11 11 11 12 12 12 12 12 11 11 11 10 10 10 10 10 10 10 10 10 10 10 9 9 9 9 9 9 9 9 9 9 9 8 9 10 12 13 14 14 15 16 16 17 17 16 16 16 15 15 14 14 13 12 11 11 10 11 11 11 10 10 10 10 10 9 9 10 10 10 11 12 14 15 16 17 18 18 21 22 23 26 30 32 31
12 12 13 13 13 13 12 12 12 12 11 11 11 11 11 11 10 11 11 11 11 10 10 9 9 8 8 8 9 9 9 10 9 8 8 9 10 12 14 15 15 15 15 16 15 15 15 14 14 14 13 13 12 11 11 10 10 10 10 10 10 10 9 10 10 10 10 11 11 11 12 12 14 15 16 18 19 20 21 21 21 24 24 23 24
13 13 13 14 14 13 13 13 12 12 12 12 12 11 11 11 11 12 12 11 11 11 10 9 9 8 8 8 9 10 11 11 10 7 7 9 10 11 13 15 15 15 14 14 14 14 14 14 14 13 12 11 11 10 10 9 9 9 9 9 9 9 9 9 9 10 10 11 11 11 11 12 15 16 18 20 21 22 22 21 20 20 20 18 20
14 14 14 14 14 14 14 14 13 13 13 12 12 12 12 12 12 12 12 12 11 11 10 10 9 9 9 10 11 12 14 13 10 6 6 8 9 10 12 13 14 14 13 13 13 13 13 13 13 13 12 11 10 9 9 9 8 8 8 8 7 8 8 8 8 9 9 10 11 12 12 13 15 17 18 20 22 23 22 22 20 19 21 22 23
15 15 14 14 15 15 15 15 14 14 14 13 13 13 13 13 13 13 13 13 12 12 12 11 11 11 12 13 14 15 15 13 10 8 7 8 9 10 11 12 13 13 13 12 12 12 12 11 12 12 12 11 10 9 8 8 8 7 7 7 6 7 8 7 7 8 9 10 11 12 13 14 16 17 18 18 19 20 20 22 22 22 25 25 26
15 15 14 15 15 16 16 16 16 15 15 14 14 14 14 14 14 14 13 13 13 13 13 13 14 15 15 15 16 16 15 13 12 11 8 8 9 10 11 12 12 13 12 12 12 11 11 10 9 10 10 10 9 8 8 7 7 7 7 6 6 7 7 7 7 8 10 11 12 13 15 15 17 18 18 17 17 18 19 21 23 24 26 27 29
15 15 15 15 16 17 17 17 17 16 16 16 15 16 16 15 15 15 15 15 15 15 15 15 16 16 16 16 16 16 15 14 14 11 7 7 10 11 11 12 13 13 13 12 11 11 10 9 8 8 8 8 8 7 7 7 6 6 6 6 6 6 6 7 7 5 7 9 10 12 13 13 14 14 14 14 14 17 20 21 21 21 23 27 29
16 16 16 16 16 17 18 18 18 18 17 17 17 17 17 17 16 16 16 17 17 17 17 17 17 17 17 17 17 18 17 16 14 9 6 7 9 11 12 13 13 14 13 12 11 11 10 8 7 6 6 6 7 7 7 6 6 5 4 4 4 5 6 6 6 4 3 4 5 7 9 10 11 12 12 12 12 15 18 19 19 20 23 23 22
17 16 16 16 16 17 18 19 19 19 19 19 18 18 18 18 17 17 18 18 18 18 19 18 18 18 18 17 18 18 17 15 12 8 6 7 9 10 12 13 14 14 13 12 11 10 9 9 7 6 6 6 6 6 4 2 6 6 6 6 5 6 7 7 6 6 6 6 6 8 9 10 11 11 11 11 11 13 14 16 17 19 20 19 19
17 16 16 15 16 17 18 19 20 20 19 19 19 19 19 18 18 18 19 19 19 19 19 19 19 18 17 18 18 17 15 12 9 8 8 8 9 10 11 12 13 13 12 11 10 9 9 8 7 7 7 6 6 4 1 5 7 7 7 8 9 9 9 9 9 10 10 10 10 11 11 11 12 12 12 12 12 12 13 14 15 17 19 20 21
16 15 15 15 16 17 18 19 20 20 20 19 19 19 19 19 19 19 20 20 20 20 20 19 19 18 18 18 16 14 12 11 9 8 9 9 9 10 10 10 11 12 11 10 9 9 9 8 7 7 6 6 6 5 2 6 6 6 6 10 11 11 10 12 13 15 15 15 14 14 13 13 13 12 12 12 12 13 14 15 16 17 18 20 22
15 15 15 15 17 17 18 19 19 19 19 19 19 19 19 19 20 20 21 21 21 21 20 19 19 18 18 16 14 12 12 12 11 9 9 9 9 9 9 8 9 9 10 9 9 9 8 7 7 7 7 7 7 8 4 4 5 5 7 9 10 11 13 15 16 16 16 16 15 14 14 14 13 12 12 12 12 13 14 15 16 17 17 19 22
15 14 15 16 17 17 18 18 19 19 19 20 20 20 19 19 20 20 21 22 22 21 21 20 19 19 18 16 13 12 12 12 11 9 9 10 9 8 8 8 7 6 8 8 8 8 7 7 7 7 7 8 6 5 1 6 6 5 6 6 8 11 14 15 16 15 15 15 15 15 15 14 13 13 13 13 14 15 16 16 16 16 16 17 18
15 14 15 15 16 17 18 18 19 20 20 21 21 21 20 20 20 21 22 23 23 22 21 20 20 20 19 17 15 14 13 12 10 10 10 10 10 9 8 8 7 6 5 6 7 7 6 6 7 7 9 9 5 2 6 7 6 7 7 8 9 12 13 13 14 14 14 14 15 15 15 15 15 16 17 17 18 19 19 19 19 18 18 18 18
15 15 15 16 16 17 17 18 19 20 21 22 22 21 21 21 21 22 22 23 23 23 23 22 21 21 20 19 18 16 16 15 12 10 10 11 11 10 9 8 7 5 4 4 4 4 4 4 5 5 8 9 7 7 7 7 7 8 8 9 10 10 11 11 12 13 13 14 15 15 15 16 17 18 20 21 21 22 22 22 22 22 22 22 22
16 16 16 16 17 17 18 18 19 21 22 22 23 23 22 22 22 22 23 23 24 24 24 23 22 22 21 21 20 18 17 17 15 12 10 11 12 11 10 8 6 4 2 2 2 2 3 3 4 4 5 7 7 7 7 7 8 7 7 8 9 9 10 11 11 13 14 15 16 16 16 17 18 19 20 22 22 23 25 25 25 25 25 27 28
16 16 17 17 17 18 19 19 20 21 21 22 23 23 23 24 24 23 23 24 25 25 25 24 23 22 22 22 21 20 18 18 17 14 12 13 13 13 10 7 4 1 1 1 1 2 3 4 4 4 4 5 5 6 7 7 7 6 7 7 8 8 9 10 12 13 15 15 16 17 18 18 19 19 20 22 23 24 26 28 29 29 29 31 32
17 17 18 18 18 19 20 20 21 22 22 23 23 23 23 24 24 24 25 25 25 24 25 24 23 23 23 22 22 21 20 20 19 17 16 15 15 14 11 7 3 1 3 3 2 3 3 4 4 4 4 5 5 5 6 6 5 5 6 6 7 8 9 11 12 13 14 16 17 18 18 19 20 20 21 23 25 25 26 28 30 31 31 31 33
18 18 18 18 19 20 21 21 22 22 23 24 24 24 24 24 25 25 26 27 27 26 26 26 26 25 25 25 24 23 22 22 23 22 20 18 17 16 13 8 6 5 5 5 4 3 4 4 5 5 4 5 5 5 5 5 5 5 5 6 7 9 10 11 12 13 14 15 16 18 18 19 20 22 23 25 26 26 27 28 29 31 31 30 30
18 18 18 19 20 20 21 22 22 23 23 23 24 24 24 25 25 25 25 26 27 27 27 27 27 27 27 28 27 27 26 26 26 24 22 20 19 16 13 10 9 8 8 7 6 5 5 5 5 5 4 5 5 5 6 6 5 5 6 7 8 9 10 11 13 13 14 15 16 17 19 20 22 23 24 26 27 27 28 29 29 30 30 29 28
19 19 19 19 20 21 21 22 22 22 23 23 23 22 21 23 24 24 24 24 24 24 24 24 25 25 25 27 28 28 27 26 26 24 23 21 19 17 15 13 12 11 10 9 8 7 6 6 5 5 5 6 6 6 6 6 7 7 7 8 9 10 11 11 13 14 14 15 16 17 18 21 23 24 25 27 29 29 28 29 29 29 29 29 30
19 20 20 20 21 21 22 22 22 22 22 23 23 21 20 20 21 22 22 22 22 22 21 20 20 22 23 24 25 25 25 24 23 23 23 22 20 18 17 16 14 13 12 11 10 9 8 6 5 5 6 7 7 7 7 8 8 9 9 10 10 10 12 13 13 14 15 15 15 17 18 20 22 24 25 27 29 30 30 30 30 29 29 28 29
21 20 21 21 21 21 22 22 22 22 21 22 23 23 21 20 18 18 19 20 20 20 19 18 18 19 20 20 21 22 23 23 21 21 22 22 21 20 18 17 15 14 13 13 12 10 8 7 6 6 7 8 7 8 8 9 10 10 11 12 11 11 12 14 14 14 15 15 16 18 19 20 22 24 25 26 28 30 31 31 30 30 30 29 29
21 21 20 21 21 21 21 21 22 22 22 22 23 23 23 22 21 18 16 16 16 17 17 17 17 18 18 18 18 18 19 19 19 18 19 21 21 20 18 17 15 15 15 14 13 10 8 8 8 7 8 9 8 9 10 10 10 11 12 13 13 13 13 13 14 14 14 15 17 19 20 21 23 24 25 26 27 29 30 31 31 30 29 30 30
21 21 20 21 21 22 22 22 22 22 22 23 23 24 24 23 23 21 19 17 16 16 16 16 17 17 17 18 18 17 16 16 16 16 17 19 20 20 18 16 15 15 15 15 13 11 9 9 10 9 9 10 10 10 10 10 11 12 13 13 14 15 14 13 14 14 15 16 18 19 20 21 22 24 26 27 28 29 29 30 31 30 29 29 31
21 20 20 20 21 22 22 22 22 22 22 22 23 24 23 23 22 23 23 22 20 19 17 16 16 17 18 18 18 18 16 15 15 16 16 18 19 19 17 17 16 16 16 16 14 11 10 11 11 10 10 10 10 10 11 11 11 12 13 14 15 15 14 14 14 14 16 17 18 20 21 22 23 24 25 27 28 29 30 31 30 31 30 29 30
20 20 20 20 20 21 21 21 22 22 23 22 22 22 22 22 23 23 22 22 21 20 19 17 17 17 17 18 17 17 16 16 16 16 16 18 18 18 18 18 18 18 17 16 14 12 11 12 11 11 10 10 10 10 11 12 12 13 14 15 16 16 16 15 15 16 17 18 19 21 22 23 24 24 25 27 29 29 30 31 31 31 31 30 30
21 20 20 20 20 20 20 20 21 21 22 22 21 21 21 22 23 22 22 21 21 20 20 19 18 18 18 17 17 17 17 16 16 16 17 17 18 18 19 18 18 17 16 15 13 13 13 12 12 11 11 11 11 11 12 13 13 14 15 15 16 16 16 16 17 17 19 20 21 22 23 23 25 25 25 28 30 31 31 32 31 31 32 31 30
20 21 20 20 20 20 20 20 20 20 21 21 21 21 21 22 22 22 21 21 21 21 22 21 21 20 20 19 18 18 18 17 17 18 18 18 19 19 19 18 17 17 16 14 13 13 14 13 12 12 12 12 12 12 13 13 14 15 15 16 16 16 16 17 17 18 19 21 21 22 24 25 25 26 26 28 30 32 32 32 31 32 33 32 30
20 20 19 19 19 20 20 20 19 20 21 22 22 21 21 22 23 22 22 21 22 22 23 23 22 22 21 20 20 20 20 20 21 21 21 21 21 20 19 19 18 17 16 14 13 14 14 13 12 12 13 13 13 13 14 14 14 15 15 16 17 17 16 17 18 19 20 22 22 23 25 26 26 27 28 29 30 31 32 32 32 31 32 33 33
20 20 19 18 19 20 20 19 20 21 22 23 23 22 23 23 24 24 23 22 22 23 24 25 24 23 22 22 22 21 22 22 23 23 23 22 22 21 20 19 18 17 15 14 13 14 14 13 13 13 13 14 14 13 14 14 15 15 15 16 18 18 18 18 19 20 21 22 24 25 26 27 28 29 30 31 31 31 31 32 33 32 31 33 34
19 19 18 18 19 19 19 19 20 21 22 23 23 23 23 24 24 24 23 22 22 23 24 25 25 24 23 23 23 22 22 22 22 22 22 21 21 20 19 18 17 16 15 13 13 13 14 14 14 14 14 14 13 13 14 14 14 15 16 16 17 19 19 19 20 21 22 23 24 26 27 28 29 30 32 33 33 32 32 33 33 33 33 33 33
18 19 18 18 19 19 20 20 21 21 21 22 22 23 23 23 23 23 23 22 22 22 23 24 24 24 24 23 23 23 23 22 22 21 21 20 20 19 18 17 16 15 14 13 13 13 13 14 15 14 14 14 13 13 14 14 14 15 16 17 18 19 20 20 21 21 23 24 25 27 28 29 30 31 33 34 33 33 34 34 33 33 33 33 34
18 18 18 18 19 20 20 21 21 21 21 22 22 22 22 22 22 22 22 22 21 22 22 22 22 23 23 23 22 23 24 24 23 21 20 19 19 19 18 16 15 14 13 13 13 13 14 15 15 15 14 13 13 14 14 14 15 16 17 18 19 20 21 21 22 22 23 25 27 28 28 30 31 32 33 34 33 33 34 34 33 33 33 34 35
16 17 17 18 19 20 20 20 20 21 21 21 21 21 21 21 21 21 21 21 21 21 21 21 21 21 21 21 21 22 24 24 24 22 20 19 19 18 17 15 14 13 13 14 13 13 14 15 15 15 14 13 13 14 14 14 15 17 17 19 20 21 21 22 22 23 24 26 27 28 29 30 31 32 33 34 34 34 34 34 33 34 35 35 36
15 16 17 18 19 20 19 19 19 20 20 20 20 20 20 21 20 20 20 21 21 21 21 20 20 19 20 21 21 22 23 23 23 22 21 19 19 17 15 14 13 14 14 13 13 13 15 15 15 15 15 13 13 14 15 15 16 16 17 19 20 21 21 21 22 23 24 25 27 28 30 31 32 33 34 34 34 33 34 35 34 35 37 37 36
15 16 17 18 19 19 19 19 19 19 19 20 20 20 21 21 20 20 20 20 20 20 20 20 20 19 19 20 20 20 21 21 20 20 19 18 17 15 14 13 13 13 13 13 14 14 15 16 16 16 15 14 14 15 15 15 16 16 17 18 19 19 20 21 21 23 24 24 26 28 29 31 33 33 34 35 35 34 35 36 36 36 37 37 37
14 16 17 18 18 18 18 19 19 19 19 20 20 20 21 21 21 21 21 21 20 20 20 20 20 20 19 19 19 19 19 19 18 18 17 16 15 14 13 13 13 14 14 14 15 15 16 16 16 16 16 16 16 16 15 15 16 16 17 17 18 18 19 20 21 23 24 24 26 27 28 30 33 34 34 35 35 35 36 37 37 38 38 37 38
14 15 17 17 17 18 18 18 19 19 19 19 19 20 20 20 20 21 21 21 21 21 21 21 21 21 20 20 19 18 17 17 16 16 16 15 14 13 13 13 14 14 15 15 15 15 15 15 16 16 17 17 17 17 16 16 16 16 17 17 17 18 20 21 21 23 24 24 26 27 28 30 32 33 35 35 36 36 38 38 39 39 39 38 39
14 15 17 17 17 17 18 18 19 19 19 19 19 19 19 20 20 20 21 21 21 21 21 21 21 21 20 20 19 18 17 16 16 15 15 15 14 13 13 14 14 15 15 15 15 15 15 15 16 17 17 17 17 17 17 18 18 17 18 18 19 20 21 21 22 23 24 25 26 27 28 30 32 33 34 36 36 37 38 39 39 40 40 39 40
14 15 16 17 17 17 17 17 18 19 19 19 19 19 19 20 20 20 20 21 21 21 21 21 21 21 20 19 18 18 17 16 15 15 14 14 13 13 14 14 15 15 15 15 15 15 15 15 16 16 17 17 18 18 18 19 19 19 19 20 21 21 22 22 23 24 24 25 26 27 28 30 32 33 35 37 37 37 38 39 39 40 40 40 41
13 14 15 16 16 17 17 17 17 18 19 19 19 19 20 20 20 20 20 21 21 21 21 21 21 20 20 19 18 17 16 15 15 15 14 14 14 14 14 15 15 15 15 15 15 15 15 15 16 16 17 17 17 18 19 19 20 20 21 21 22 22 23 23 24 25 25 25 27 28 29 30 32 34 36 37 37 38 39 40 39 40 41 40 41
Wind_Direction
323 321 308 299 302 307 311 314 314 312 310 304 296 289 283 277 272 269 264 258 252 244 238 233 228 225 219 211 203 194 191 186 180 179 175 169 165 163 162 163 161 154 149 148 149 152 154 150 145 141 143 144 139 138 138 139 145 149 152 157 153 154 157 143 125 111 125 152 155 129 110 125 38 359 341 348 355 0 359 345 337 337 337 337 337
317 317 305 293 293 300 304 306 306 304 299 295 288 280 275 271 266 265 260 253 248 241 234 228 222 219 212 206 199 192 188 182 178 175 170 166 159 155 155 154 151 147 143 140 139 139 140 136 131 129 135 137 132 129 127 127 132 135 136 142 146 149 156 148 135 126 128 148 160 145 121 112 67 343 343 351 352 356 357 346 340 340 340 342 342
309 310 300 287 284 288 294 295 294 292 287 283 280 274 270 267 263 261 255 248 241 233 229 222 214 209 203 199 193 187 183 178 174 170 167 165 158 152 151 149 144 141 138 134 133 133 133 127 122 120 125 126 122 120 121 120 123 127 124 129 137 140 151 157 149 138 130 132 146 143 118 96 20 341 350 354 348 348 350 346 344 344 345 347 347
302 304 292 279 276 277 280 282 282 280 277 276 274 271 268 263 258 255 248 242 234 225 221 213 206 200 194 191 184 179 176 172 170 169 165 163 159 154 151 149 144 139 136 133 131 132 130 123 119 118 119 118 112 109 112 112 114 119 117 120 130 132 140 151 156 153 142 130 124 137 133 96 7 348 351 351 346 345 350 351 347 346 349 352 352
294 294 283 270 267 269 272 275 276 274 272 272 270 267 263 256 250 246 239 233 226 219 214 207 201 196 187 183 179 174 172 168 167 166 161 159 158 154 151 148 144 140 136 132 130 130 126 120 116 116 118 116 110 107 108 108 109 112 113 115 120 125 132 136 138 147 144 128 114 114 103 61 17 356 353 352 350 348 349 353 355 352 349 351 355
284 282 275 263 259 262 267 270 271 270 267 265 263 258 254 248 242 236 231 227 221 214 209 203 198 193 186 180 176 172 169 167 165 162 160 160 158 153 150 147 142 138 133 130 128 126 122 119 116 117 119 116 114 112 111 111 111 110 111 112 115 120 123 123 124 130 130 120 111 100 72 48 19 7 3 359 358 356 350 348 354 356 351 349 355
277 273 267 261 257 256 260 263 264 262 260 258 255 250 245 239 235 231 226 222 217 210 205 199 195 192 185 178 175 172 168 166 163 160 159 160 157 153 149 144 139 134 129 127 126 124 120 119 117 119 119 115 115 115 114 114 112 109 108 109 114 118 116 114 117 119 115 110 102 87 65 39 18 13 8 4 6 7 1 353 349 352 352 349 351
270 268 262 258 255 253 253 255 255 254 251 249 246 242 237 233 230 228 223 217 212 206 201 197 192 188 183 175 170 168 167 164 162 161 159 158 157 152 148 144 139 133 129 127 126 124 121 120 120 119 117 114 112 111 110 112 111 108 104 102 108 112 109 110 109 107 108 104 94 80 62 39 24 16 11 10 9 6 6 358 347 346 348 345 347
264 262 258 254 252 251 250 250 249 246 244 241 238 235 232 229 226 223 218 212 206 200 196 193 190 185 178 171 165 161 162 161 159 161 161 159 157 152 147 146 141 137 135 132 130 128 126 123 121 120 118 114 112 109 107 106 108 107 102 99 103 104 105 107 103 101 103 96 84 66 51 40 27 15 11 12 6 357 358 354 344 343 343 339 343
259 256 253 250 248 247 247 246 244 240 237 234 231 229 226 224 221 217 212 207 200 194 190 187 185 182 173 167 161 156 155 154 151 156 160 160 158 154 149 146 144 143 141 138 136 135 132 129 126 123 122 118 114 112 109 106 106 106 104 103 103 102 105 105 97 94 90 83 72 54 45 37 24 15 7 3 359 352 351 348 341 341 341 339 340
255 251 248 246 244 243 242 241 238 235 232 229 226 224 222 218 215 211 206 200 195 190 185 182 178 175 171 162 153 150 146 138 135 145 156 159 159 156 152 149 147 146 145 143 141 138 134 131 128 127 126 123 119 116 113 110 106 106 107 108 105 101 98 94 89 82 75 73 63 47 40 29 19 14 4 356 352 347 345 343 338 336 339 337 329
250 248 245 244 242 240 240 237 233 231 228 225 223 220 217 213 209 206 200 194 191 185 179 176 169 163 161 151 143 140 130 122 127 143 154 158 161 159 155 152 150 148 147 145 143 140 138 133 129 127 123 121 119 117 115 112 108 107 106 104 103 96 85 81 81 74 70 70 61 45 32 18 13 10 1 353 345 341 339 337 334 330 328 323 307
245 244 243 243 241 239 238 234 230 229 225 222 220 215 211 208 204 201 195 191 188 179 170 164 158 155 151 141 135 127 118 122 137 149 151 156 162 163 158 153 151 148 147 146 145 143 142 138 134 130 125 121 119 115 113 109 104 102 98 94 91 83 72 70 71 65 58 52 44 36 24 9 5 3 359 351 341 338 335 329 328 323 317 314 305
238 241 241 241 239 238 237 232 228 226 222 219 216 209 207 204 200 197 193 187 181 172 164 157 151 147 141 136 130 122 121 131 142 142 149 162 165 164 160 154 150 147 145 145 144 142 141 141 138 134 130 127 122 116 111 105 99 95 91 86 78 67 60 59 60 51 39 31 23 20 15 3 356 354 353 348 338 333 329 323 322 320 315 312 308
236 239 239 239 238 236 234 230 226 224 219 215 211 207 204 201 197 193 188 181 174 168 162 156 150 145 142 139 133 127 130 137 136 139 156 168 164 163 161 155 151 146 143 143 141 140 140 140 140 138 134 131 127 121 115 104 96 91 87 79 65 54 47 46 47 32 21 16 6 4 5 358 352 349 345 344 336 325 318 314 314 314 313 312 314
235 237 237 238 238 236 233 228 224 221 216 212 208 205 202 198 195 190 182 175 171 166 161 157 154 150 147 141 134 131 134 135 135 144 163 165 161 162 159 154 149 143 140 140 139 139 140 138 140 143 139 136 133 127 121 107 90 83 85 79 65 50 29 30 48 40 14 7 358 353 350 342 336 329 323 328 326 314 308 308 312 317 320 321 323
235 236 238 239 238 235 231 226 222 218 214 210 206 203 200 197 194 189 181 175 169 165 162 159 156 152 146 141 138 138 139 139 143 156 169 163 162 162 158 154 150 145 143 142 142 142 142 141 145 147 146 144 137 130 125 103 71 54 52 56 55 40 18 20 42 48 16 359 341 329 324 319 317 314 313 316 315 311 313 318 327 333 332 330 326
237 238 241 242 239 235 230 225 221 217 213 210 207 202 199 196 194 188 183 177 170 166 163 159 155 151 147 146 147 145 143 145 154 165 164 162 166 167 163 158 153 150 147 146 147 149 150 149 150 151 150 143 126 121 124 57 22 10 8 15 12 9 9 11 16 10 356 351 343 336 336 334 331 329 327 324 322 322 326 330 336 336 332 328 319
240 243 245 245 240 235 230 225 220 217 214 211 208 204 199 196 193 187 183 178 171 166 163 158 155 153 151 153 154 151 147 146 153 157 155 160 167 168 168 164 158 154 153 152 151 153 155 155 154 156 157 145 118 108 265 314 339 345 352 0 355 352 359 1 356 352 349 351 352 351 351 346 338 333 330 331 333 333 332 334 334 333 330 324 319
242 243 244 242 238 234 229 224 220 216 214 211 207 204 200 196 192 186 183 178 171 166 163 160 158 156 155 157 158 155 147 140 142 150 152 157 165 167 168 169 163 156 155 156 156 156 157 158 160 159 156 146 112 81 340 294 307 323 343 356 351 344 349 352 348 345 344 345 347 347 344 340 334 330 329 331 334 332 333 336 334 331 327 319 316
239 238 238 235 233 231 228 225 220 217 214 210 204 202 199 196 192 188 184 178 172 168 165 163 160 158 158 161 160 151 141 138 144 152 151 153 161 165 166 166 164 159 155 154 157 159 159 159 163 161 157 152 112 69 34 275 271 307 344 357 345 333 337 340 337 336 335 335 337 337 336 334 331 332 333 333 335 334 334 336 333 330 324 316 313
237 236 234 231 228 226 225 223 219 215 211 206 201 199 198 196 193 189 183 178 174 171 168 166 163 160 161 164 161 152 146 148 152 152 150 153 157 158 158 154 151 151 153 152 154 158 159 162 165 166 164 155 116 66 287 255 272 307 332 339 321 316 324 327 325 325 325 327 330 332 336 338 337 340 343 342 342 342 340 338 336 331 324 317 312
236 233 230 228 225 223 221 219 216 212 208 205 201 198 196 194 192 189 184 180 177 174 171 169 166 164 163 165 163 158 157 163 165 157 152 156 157 158 159 152 141 135 139 146 152 159 167 169 167 166 165 160 148 246 256 265 292 303 308 313 309 312 318 317 316 318 321 326 330 334 342 346 343 343 346 345 346 346 344 341 338 335 330 324 318
231 229 228 224 222 220 218 215 213 210 207 204 200 196 195 193 191 189 186 183 181 179 176 174 172 170 168 167 167 166 165 171 179 176 166 163 163 164 161 150 135 126 125 135 149 164 178 180 175 176 177 183 208 251 269 285 299 302 308 313 311 313 314 312 314 320 326 333 335 337 345 347 343 342 343 343 343 343 342 340 337 337 334 328 324
226 226 225 222 220 217 214 212 211 209 207 204 200 196 194 191 189 189 188 186 184 183 181 181 180 177 174 173 173 173 173 176 183 189 186 177 172 169 163 147 127 111 112 129 159 182 195 203 206 208 210 218 237 262 280 289 296 304 311 309 307 309 310 314 323 328 332 336 336 337 343 343 340 340 339 338 341 342 341 338 337 338 337 332 329
225 223 222 220 217 213 210 208 208 208 207 205 203 200 196 193 190 190 190 189 188 187 185 185 185 184 183 181 180 179 179 181 186 193 198 192 185 178 172 162 142 97 24 340 243 217 215 220 226 233 245 254 262 273 281 287 296 301 300 299 303 310 317 325 331 331 332 335 334 334 338 338 337 337 337 336 339 342 341 338 336 338 339 335 330
223 221 219 217 214 211 209 206 205 205 204 203 203 202 199 196 193 191 191 190 189 189 189 189 189 189 189 188 186 185 185 187 190 195 200 202 197 190 188 194 207 286 324 324 286 238 229 230 243 259 267 272 277 279 278 281 286 286 289 300 309 319 327 329 329 329 330 331 329 330 333 334 334 336 337 337 338 341 341 337 335 336 337 334 329
223 221 218 215 213 210 209 208 205 203 203 203 202 202 200 199 197 196 196 194 192 192 193 193 194 195 194 192 191 190 191 195 198 202 207 209 204 200 204 220 245 276 304 312 293 260 247 248 258 268 271 275 281 279 273 274 277 283 296 310 317 324 327 325 325 327 327 325 324 327 330 332 334 336 336 335 337 339 339 337 334 333 334 332 327
221 220 216 214 212 209 208 208 205 204 203 203 204 205 204 203 202 202 202 201 199 199 200 200 201 201 199 199 197 195 199 205 208 210 214 218 217 217 224 239 257 274 291 299 290 270 261 261 265 272 281 288 287 279 274 275 280 292 306 314 318 321 320 320 322 323 322 322 323 326 329 331 333 335 334 332 334 337 338 335 333 332 331 328 322
217 216 214 213 212 209 207 206 205 205 203 201 202 204 206 206 206 205 205 204 205 207 209 210 210 208 206 208 208 207 211 216 215 214 216 221 225 230 236 246 258 270 281 288 283 272 268 271 275 286 295 296 290 284 281 284 291 300 309 313 314 316 316 318 321 321 322 323 324 326 329 329 330 332 331 330 331 334 335 333 331 330 328 325 319
215 214 214 213 212 209 207 206 204 204 203 202 199 198 197 201 205 207 207 206 206 209 213 217 217 216 215 216 216 216 219 223 222 219 220 222 225 230 237 246 255 266 276 280 274 268 272 278 283 292 295 292 291 289 287 291 299 305 310 311 313 315 317 320 322 322 323 324 324 326 328 328 328 329 329 328 328 329 330 331 330 327 325 321 315
219 217 216 214 212 210 207 205 203 202 202 201 199 196 193 191 194 201 208 210 209 210 214 217 219 220 222 222 221 220 222 225 227 226 225 227 230 233 240 247 255 262 268 268 264 264 273 279 281 287 288 287 287 286 285 290 297 302 306 310 314 319 321 322 324 324 323 324 325 326 328 328 327 327 326 327 326 325 326 327 327 325 322 318 313
224 222 218 214 210 208 206 205 203 202 201 199 198 197 195 191 188 188 194 202 208 211 213 216 218 220 221 223 224 225 227 228 230 229 228 230 234 237 241 246 252 257 258 257 259 263 271 276 281 284 284 282 281 281 283 288 294 298 302 306 311 318 323 323 323 323 324 324 324 326 328 328 327 326 326 326 324 322 322 323 323 322 319 316 313
227 225 222 217 211 207 206 205 204 204 203 201 199 197 197 196 193 187 182 182 189 197 203 209 215 218 219 219 221 224 225 226 228 228 227 228 232 236 240 242 246 249 249 251 255 260 265 272 278 281 279 278 277 278 282 287 292 296 301 305 310 316 322 323 322 322 323 323 324 327 328 328 327 326 325 323 322 321 320 320 320 319 316 313 312
226 225 224 221 215 210 207 206 206 205 203 202 199 197 197 197 195 193 191 187 186 188 192 198 207 213 215 216 218 220 221 221 223 224 223 225 228 230 232 232 234 236 240 246 253 260 265 270 275 277 276 274 273 276 282 289 294 298 303 308 312 316 320 321 321 322 321 322 324 326 327 327 327 325 322 320 320 319 317 318 318 316 313 311 310
223 222 222 219 216 213 211 209 209 207 204 202 201 199 198 198 196 196 197 196 194 192 191 192 197 203 208 212 215 216 217 217 218 219 220 223 226 226 227 229 231 234 240 248 255 262 267 271 274 275 272 270 271 276 284 290 295 300 304 308 312 315 317 320 320 320 320 321 323 325 326 325 325 325 322 319 318 317 316 316 315 313 312 310 309
220 220 220 218 216 214 213 212 211 210 206 203 202 200 199 200 199 198 197 198 199 198 196 196 197 197 200 204 208 210 212 213 215 217 219 222 227 229 231 235 238 241 245 251 257 263 268 271 274 274 272 272 275 281 287 291 296 301 304 306 309 311 314 316 318 319 319 321 322 324 324 323 324 325 323 318 317 317 316 315 313 312 311 311 309
222 221 222 220 216 213 212 211 211 209 206 203 202 200 200 199 199 200 200 200 201 201 201 202 203 202 202 202 203 206 207 207 209 213 215 218 224 229 232 236 239 243 248 252 256 263 267 270 272 273 273 276 279 283 288 292 295 299 303 304 305 307 310 313 315 317 317 319 321 322 322 323 324 324 321 317 315 315 315 314 313 311 311 311 310
222 223 224 222 218 214 212 210 209 206 204 203 201 200 201 200 200 202 203 204 205 206 206 208 209 210 209 207 205 204 205 206 209 212 214 218 224 229 233 237 239 243 248 252 256 262 267 269 270 271 273 276 281 284 288 291 294 298 301 303 304 306 309 311 314 316 318 319 321 322 322 322 323 322 319 316 314 314 314 313 312 310 309 308 308
220 222 222 221 218 215 213 211 208 205 203 202 201 201 202 202 203 203 204 206 207 209 210 213 214 215 213 212 211 211 210 211 215 217 219 222 227 231 235 239 242 246 251 255 258 262 266 267 267 269 271 274 278 282 286 289 293 296 299 301 302 304 308 312 313 316 319 319 320 320 320 320 321 320 318 316 315 314 313 311 310 309 307 305 305
221 221 220 219 216 214 212 211 210 207 205 204 203 203 204 206 205 205 206 208 210 211 214 218 220 220 219 218 219 220 220 222 224 225 226 228 231 234 238 243 247 251 255 259 261 261 262 262 264 266 269 272 277 282 285 288 292 295 297 299 300 303 307 311 313 316 319 319 318 318 318 319 319 318 316 315 315 313 311 309 308 308 306 305 305
222 220 218 216 213 212 211 211 210 209 207 206 206 206 207 208 207 207 208 210 211 214 217 220 222 223 223 224 224 224 227 229 231 232 233 234 236 239 243 247 250 254 258 260 260 258 257 259 262 265 269 273 279 283 286 289 292 294 295 297 300 302 306 310 314 317 319 318 317 316 317 317 317 315 313 313 313 312 311 310 308 308 307 306 305
224 222 220 217 214 213 214 213 211 209 207 207 208 209 209 209 209 210 211 211 213 215 219 221 224 225 226 227 228 227 229 232 234 235 237 237 238 241 244 246 251 255 257 257 255 254 257 261 263 267 272 277 282 285 288 289 291 293 295 298 300 303 306 310 315 318 318 316 314 315 315 315 314 312 312 313 312 311 310 309 308 308 307 305 303
226 224 221 219 216 215 214 213 212 210 208 208 209 209 210 210 210 211 212 212 214 217 220 223 226 227 226 226 226 227 229 231 233 234 235 235 236 239 242 244 249 252 252 252 253 255 259 264 267 270 275 279 283 286 287 288 290 293 296 298 300 303 307 311 315 317 315 313 312 312 312 312 311 311 312 312 312 311 309 308 308 307 306 304 302
227 224 221 217 214 212 212 212 212 210 208 208 209 210 210 211 211 212 213 214 215 218 221 224 227 228 226 225 225 225 227 230 230 231 232 232 234 237 239 242 247 249 251 254 256 258 262 267 271 275 279 282 284 285 285 287 289 292 295 297 299 303 308 312 314 313 311 310 310 310 310 309 310 311 311 311 311 310 308 307 307 305 303 302 301
228 224 221 216 212 210 210 211 211 210 208 208 209 210 211 211 212 214 216 217 218 219 221 224 227 227 227 228 228 227 228 228 228 228 229 231 233 237 239 243 248 252 255 257 259 261 265 269 274 278 282 284 285 285 286 288 291 292 294 297 300 304 309 311 310 308 307 308 308 307 308 308 309 310 311 311 310 309 307 305 305 303 301 301 301
228 223 218 214 211 211 211 211 211 210 209 210 210 211 211 212 213 215 218 219 221 221 223 225 228 229 229 231 231 231 230 230 228 228 229 232 234 238 241 245 250 254 257 259 259 261 265 269 274 279 282 284 286 287 289 291 293 295 297 301 304 306 308 308 306 305 306 306 306 306 307 308 308 309 310 310 309 308 306 304 303 302 301 301 301
225 219 214 212 211 211 211 212 212 211 211 211 212 213 213 214 215 217 219 220 222 223 224 227 230 232 233 234 235 235 234 234 232 232 232 234 236 239 242 247 251 254 257 258 258 261 267 272 275 278 282 284 286 289 292 294 295 298 301 304 306 306 306 306 305 306 307 306 306 306 307 307 307 309 309 309 308 306 304 303 302 302 303 302 301
224 217 214 213 214 214 214 215 215 213 212 212 213 214 215 216 217 219 220 222 223 224 226 228 231 234 236 237 237 237 237 236 235 234 233 234 238 241 244 249 254 257 259 260 261 264 269 273 276 279 281 284 287 290 293 296 298 300 303 305 305 305 306 306 306 308 308 307 306 307 307 307 307 308 308 308 307 305 303 302 302 303 303 301 300
225 220 217 216 217 218 218 219 219 217 215 215 216 217 217 217 220 221 222 223 225 226 227 229 231 234 237 238 238 238 238 236 234 234 235 238 241 245 248 252 256 259 261 263 265 268 271 274 277 280 282 284 288 291 293 296 299 300 302 303 303 304 305 306 307 307 308 307 306 307 307 307 308 308 308 307 306 304 302 302 302 302 302 300 299
227 223 220 220 221 221 221 221 221 220 218 217 219 220 220 221 223 224 225 227 228 229 230 231 233 235 238 239 240 240 240 238 237 237 238 240 243 245 250 255 259 262 265 267 268 271 275 278 281 283 286 288 291 293 294 296 298 300 301 302 303 304 305 306 306 306 306 306 306 307 308 308 308 307 307 307 306 304 303 303 302 301 300 299 299